Wind_Speed
36 36 35 35 35 34 31 28 26 25 25 25 23 23 23 22 21 20 18 16 15 15 14 14 13 13 13 13 12 12 11 11 10 9 8 8 8 7 7 8 8 8 8 8 9 9 9 9 9
37 37 37 37 37 35 32 30 29 27 27 25 25 24 24 23 23 21 19 18 17 16 16 15 15 14 14 14 13 13 13 12 11 10 9 9 9 9 9 9 9 10 10 10 10 10 11 11 11
39 39 39 39 38 35 33 32 30 30 28 27 27 26 26 25 24 22 21 20 19 18 17 17 16 16 15 15 14 14 13 13 12 12 11 11 11 11 11 11 11 11 11 12 12 12 12 13 13
41 41 41 41 39 36 34 33 33 32 30 29 29 28 27 26 25 24 23 22 20 20 19 18 17 17 17 16 16 15 15 14 14 13 13 13 13 13 13 13 13 14 14 14 14 14 14 14 15
43 43 43 42 39 36 36 35 33 33 31 31 30 30 28 27 27 26 25 24 22 21 20 20 19 19 18 18 17 17 16 16 15 15 15 14 14 14 15 15 15 15 16 16 16 16 15 16 16
45 45 44 42 39 37 37 36 36 34 33 32 32 31 30 29 29 28 27 26 24 23 22 21 21 20 19 19 18 18 18 17 17 16 16 16 16 16 16 16 16 16 17 17 17 17 18 17 17
46 46 45 43 41 40 39 38 37 35 34 33 33 33 31 31 30 29 28 27 26 25 24 23 22 22 21 20 19 19 19 19 18 17 17 17 17 16 16 16 16 17 17 17 18 18 19 19 19
46 47 46 45 43 42 40 40 39 37 36 35 35 35 33 32 31 31 30 29 28 27 26 25 24 23 22 21 21 21 20 20 19 19 18 18 18 17 17 17 17 17 17 17 17 18 18 19 20
48 48 47 45 44 43 41 42 40 39 38 37 36 35 34 34 32 32 31 30 29 28 27 26 25 25 24 23 22 22 21 21 21 20 20 20 19 19 18 18 18 18 18 18 18 18 19 19 20
49 48 46 45 45 44 43 43 41 40 39 39 37 36 36 34 34 33 33 32 31 30 29 28 27 26 26 25 24 24 23 22 22 22 21 21 21 21 20 20 20 19 19 19 19 19 19 20 20
50 48 46 46 46 46 45 45 43 41 41 40 39 38 37 36 35 35 34 34 32 31 30 29 29 28 27 26 26 25 25 24 24 23 23 23 22 22 22 22 21 21 21 21 21 21 21 21 22
49 48 48 47 46 47 47 46 44 43 42 41 41 40 38 37 37 36 36 35 34 33 32 31 31 30 29 28 27 27 26 26 25 25 24 24 24 24 23 23 23 23 23 24 24 24 24 24 24
50 48 48 48 47 47 47 46 45 45 44 43 41 40 39 39 38 38 37 37 36 35 34 33 33 32 31 30 29 28 28 27 27 26 26 26 25 25 25 25 25 25 25 25 25 25 25 25 26
49 50 49 49 49 48 47 47 47 45 45 45 43 42 41 41 40 40 39 38 38 37 36 35 34 34 33 31 30 30 29 29 29 28 28 28 27 27 27 27 27 27 27 27 27 27 27 28 28
49 50 50 50 49 49 48 49 48 46 46 46 45 44 43 42 42 41 40 40 39 38 38 37 36 35 35 34 33 32 31 31 30 30 29 29 29 29 28 28 28 28 28 28 29 29 30 30 30
50 51 51 51 50 49 50 49 47 47 47 47 46 45 45 44 43 43 42 42 41 40 39 39 38 37 36 35 34 34 33 33 32 31 31 31 30 30 30 30 29 29 29 29 30 30 31 31 31
52 51 51 50 51 50 50 48 47 47 48 48 48 47 46 45 45 44 44 43 42 42 41 40 40 39 38 37 36 36 35 35 34 33 32 32 32 31 31 31 31 31 31 31 31 31 32 32 32
51 50 50 50 50 50 50 49 47 47 47 48 48 47 47 46 46 45 45 44 43 43 42 42 41 41 40 39 38 37 37 36 35 35 34 34 33 33 33 33 33 32 32 32 33 33 33 34 34
49 49 49 49 50 50 50 49 49 48 47 48 48 47 47 47 46 46 45 45 45 44 44 43 43 42 41 41 40 39 38 38 37 36 36 35 35 35 35 35 35 34 34 34 34 34 35 35 35
49 49 50 49 51 50 50 50 50 48 47 47 48 47 46 46 46 46 46 46 45 45 45 45 44 44 43 42 41 41 40 39 38 38 37 37 37 37 36 36 36 35 35 35 35 36 36 36 36
48 48 49 49 48 50 50 50 50 49 48 48 48 48 48 47 46 46 46 46 46 46 46 45 45 44 44 43 42 41 41 40 40 39 39 38 37 37 37 37 37 36 36 36 36 37 36 36 37
46 46 47 48 48 48 50 50 49 49 48 48 48 48 48 47 47 46 46 46 46 46 46 46 45 45 44 43 42 42 42 41 40 40 40 39 38 38 38 38 37 37 37 37 37 37 37 37 38
45 44 45 46 47 48 49 49 48 49 48 48 48 48 48 48 48 47 46 46 47 47 47 46 46 45 44 44 43 43 42 42 41 41 40 40 40 39 39 38 38 38 38 38 38 38 38 38 38
44 43 43 43 45 48 48 48 49 48 48 47 47 48 48 48 48 48 48 47 47 46 45 46 45 45 44 44 44 43 42 42 41 41 40 40 40 40 39 39 39 39 39 39 38 38 38 38 39
42 42 41 42 45 48 47 47 49 47 46 46 47 47 48 48 48 48 48 48 47 47 46 45 45 45 45 44 44 43 43 42 42 42 41 41 41 41 40 40 40 40 40 39 39 39 39 39 39
41 41 42 42 43 46 46 47 48 47 46 46 46 46 47 47 47 47 46 46 46 46 46 46 45 45 45 45 44 44 44 44 43 43 42 42 42 41 42 41 41 41 41 40 40 40 39 39 39
40 40 41 41 41 42 44 46 47 46 46 46 45 45 46 46 46 46 46 46 46 46 46 46 46 46 45 45 45 44 44 44 44 44 44 43 42 42 43 43 42 42 42 41 41 41 41 41 41
38 37 39 41 41 40 42 43 45 45 45 44 44 44 45 46 46 46 46 46 46 46 46 46 46 46 46 46 45 45 45 45 45 45 44 44 43 43 43 43 43 43 43 43 42 42 43 42 43
38 38 39 40 40 40 40 42 43 42 43 43 43 43 44 45 45 45 46 46 45 46 46 46 47 46 46 46 46 45 46 46 46 45 45 44 45 45 45 44 44 44 44 44 43 44 44 44 44
38 39 39 39 39 39 40 40 40 41 42 43 43 43 43 44 44 45 45 45 46 46 45 46 46 46 46 46 46 46 46 46 46 46 46 46 45 46 46 45 45 44 44 44 44 44 45 45 45
Wind_Direction
228 229 229 229 229 230 230 230 229 228 228 225 224 226 227 231 233 235 236 233 232 232 234 235 237 238 236 234 232 232 232 233 233 233 236 241 246 253 260 263 264 267 270 274 276 278 282 285 287
229 229 229 229 230 230 231 231 231 230 230 228 227 227 229 231 233 235 236 234 233 233 234 236 238 239 238 235 233 232 234 235 237 240 241 245 251 257 262 265 268 269 270 273 277 279 283 285 287
229 229 230 229 229 230 232 233 232 232 230 228 228 227 228 231 233 235 235 234 233 234 235 237 239 240 239 236 233 234 237 238 240 245 247 251 255 260 265 268 270 272 274 275 275 278 281 283 285
229 230 230 230 229 229 231 232 232 232 230 230 229 228 229 231 234 235 235 234 234 234 236 237 239 240 241 239 237 237 239 241 245 249 252 255 260 264 266 268 271 273 275 277 277 279 280 282 284
229 230 230 230 230 229 231 232 232 233 231 231 231 230 229 231 232 234 235 235 234 235 236 237 239 241 242 241 241 241 242 244 247 251 254 257 261 265 267 269 272 275 277 278 278 279 281 282 283
229 230 231 231 230 230 231 232 232 233 232 231 231 230 229 230 231 233 234 235 235 236 236 237 239 240 241 242 243 243 246 247 248 252 256 260 263 266 269 270 273 276 277 278 279 280 281 283 283
229 230 231 231 230 229 229 231 233 233 232 232 231 232 229 230 231 232 234 236 236 237 237 238 239 240 241 242 244 245 247 249 250 253 257 261 264 267 270 272 275 277 278 279 280 280 282 283 284
230 230 230 230 230 230 229 231 232 232 232 232 231 232 231 231 231 232 234 235 236 237 237 238 239 240 241 243 245 246 247 250 252 254 258 261 264 267 270 273 275 277 279 280 282 282 283 284 285
230 230 230 230 230 230 230 231 231 231 232 232 232 233 233 233 232 232 234 235 236 236 237 237 239 240 241 243 245 246 248 251 254 256 259 261 264 267 269 272 275 277 278 279 281 282 284 284 286
230 231 230 230 230 230 230 232 231 231 231 232 232 233 233 233 234 233 234 236 236 236 237 238 239 241 243 244 246 248 250 253 256 258 260 262 264 267 268 271 274 276 277 278 280 281 282 284 285
230 231 230 230 229 230 230 231 231 231 231 232 232 233 233 233 234 234 234 235 236 237 237 238 241 242 244 245 247 249 251 254 256 258 260 262 264 267 268 270 272 274 276 277 279 281 282 284 285
230 229 229 230 229 230 231 231 230 231 232 232 232 232 233 233 233 234 234 235 236 236 237 239 241 243 245 246 248 250 253 255 257 258 260 262 264 266 268 270 272 273 275 277 279 280 282 284 286
230 229 230 230 230 230 231 231 231 231 232 233 233 233 233 234 234 234 234 235 235 236 237 239 241 243 245 247 248 250 253 254 256 258 260 262 264 266 268 270 271 273 275 276 278 279 281 283 285
229 229 229 230 230 231 232 231 232 231 233 233 233 233 233 234 235 235 235 236 237 237 239 240 242 243 245 247 249 251 252 254 256 258 260 261 263 265 268 269 272 273 275 276 278 279 281 283 285
228 228 228 229 230 231 232 232 232 232 233 234 234 234 234 234 235 236 236 237 238 238 239 241 242 244 245 247 249 251 253 254 256 257 259 261 263 265 268 271 273 274 276 277 278 279 281 283 285
228 229 229 229 230 231 232 233 232 233 234 234 235 235 235 235 235 236 236 237 238 239 239 240 242 244 246 248 249 251 253 255 257 258 260 261 263 265 268 270 273 274 276 277 279 280 281 283 284
227 229 230 229 230 230 232 233 232 233 234 234 234 235 235 235 236 236 237 238 239 239 240 241 242 244 246 247 250 252 253 255 257 259 261 262 264 265 268 270 273 275 276 277 279 281 282 283 285
228 229 230 230 231 231 232 233 233 234 234 235 235 235 236 236 236 237 237 238 239 240 241 242 243 244 246 248 249 251 253 255 257 259 261 263 265 266 267 269 272 274 276 277 279 280 282 283 285
231 231 232 232 232 232 232 233 233 234 235 235 235 235 236 237 237 237 238 239 240 240 241 243 243 245 246 248 250 252 253 255 257 259 261 262 264 265 267 269 271 274 276 277 278 279 281 283 284
229 230 231 233 234 234 233 233 233 234 235 236 236 235 236 237 237 237 237 238 240 241 242 243 244 245 246 248 250 251 253 255 257 259 261 262 263 264 266 269 271 274 276 277 278 279 281 282 283
228 230 231 233 235 236 235 234 234 234 234 235 235 236 235 236 237 237 238 238 240 241 242 243 244 246 247 248 250 251 253 255 257 259 260 261 263 265 266 268 270 272 274 276 278 279 280 281 283
226 228 231 233 233 236 236 237 235 236 235 235 236 237 237 237 238 239 239 239 240 241 242 243 245 246 247 248 249 251 253 255 256 258 259 261 262 264 266 268 270 271 272 275 277 279 280 281 283
226 227 230 232 234 236 236 238 236 236 235 235 236 238 238 239 239 240 241 241 241 242 243 243 245 246 247 249 250 251 253 255 256 257 258 260 261 263 265 267 269 271 273 275 276 278 280 282 283
226 227 229 231 234 236 235 237 238 237 237 236 237 239 239 239 240 241 241 241 242 243 244 244 244 245 247 249 250 252 253 254 255 257 258 260 262 263 265 266 268 271 273 275 276 278 279 281 283
223 226 227 230 232 235 235 237 239 238 238 238 238 239 240 240 241 242 242 242 243 243 244 244 245 246 247 248 249 251 252 253 255 257 258 260 261 263 265 266 268 270 272 274 276 278 280 281 283
223 225 228 230 233 236 235 237 238 238 238 239 239 239 240 240 241 241 242 242 242 243 244 244 245 245 246 248 249 250 252 253 255 257 259 260 262 263 265 267 269 270 272 274 276 278 280 281 283
223 226 229 231 235 239 238 238 238 238 239 240 240 240 240 240 240 241 241 241 242 242 243 244 245 246 247 248 249 250 251 253 255 257 259 261 262 264 265 267 268 270 272 275 276 277 279 280 282
225 226 226 229 233 238 239 240 240 238 240 240 241 241 241 240 240 241 241 242 242 243 244 245 245 246 248 248 250 251 252 254 255 257 259 260 262 264 266 267 268 270 273 275 277 278 280 281 282
225 226 227 230 235 238 241 241 240 241 241 241 242 241 241 241 240 240 241 242 243 244 244 245 246 247 248 249 250 252 253 254 256 257 259 261 262 264 265 266 268 270 273 275 276 278 280 281 282
228 229 230 232 234 237 242 243 241 242 241 242 243 243 243 242 241 241 242 242 243 244 245 246 247 247 248 249 250 251 253 254 256 258 259 261 263 264 265 266 268 271 273 274 276 278 280 281 282
Height
5804 5807 5811 5814 5818 5820 5824 5830 5833 5835 5838 5841 5844 5846 5849 5851 5853 5857 5858 5859 5861 5862 5864 5865 5866 5868 5869 5870 5871 5872 5873 5874 5875 5876 5877 5878 5879 5879 5880 5880 5881 5881 5881 5882 5882 5882 5882 5882 5882
5798 5802 5805 5808 5811 5816 5821 5826 5829 5832 5834 5837 5840 5843 5845 5847 5849 5851 5854 5856 5858 5860 5862 5863 5865 5866 5867 5869 5870 5871 5872 5873 5874 5875 5876 5877 5877 5878 5878 5879 5879 5880 5880 5880 5880 5881 5881 5881 5881
5792 5795 5799 5802 5806 5812 5818 5821 5824 5827 5830 5833 5836 5839 5841 5844 5846 5849 5851 5853 5856 5858 5859 5861 5862 5864 5865 5867 5868 5869 5870 5872 5873 5873 5874 5875 5876 5877 5877 5877 5878 5878 5879 5879 5879 5879 5879 5879 5879
5785 5789 5792 5797 5801 5808 5812 5815 5818 5821 5826 5829 5832 5835 5838 5841 5843 5845 5848 5850 5852 5855 5856 5858 5860 5861 5863 5864 5866 5867 5868 5870 5871 5872 5873 5873 5874 5875 5875 5876 5876 5876 5877 5877 5877 5877 5877 5877 5876
5777 5781 5786 5790 5797 5802 5806 5809 5812 5816 5820 5824 5827 5830 5833 5837 5839 5841 5844 5846 5849 5851 5854 5855 5857 5859 5860 5862 5863 5865 5866 5867 5869 5870 5871 5871 5872 5873 5873 5873 5874 5874 5874 5874 5874 5874 5874 5874 5874
5770 5774 5780 5785 5792 5797 5800 5803 5807 5811 5815 5818 5822 5825 5829 5832 5835 5837 5840 5843 5846 5848 5850 5852 5854 5856 5857 5859 5861 5862 5864 5865 5866 5867 5868 5869 5870 5870 5871 5871 5871 5872 5872 5872 5872 5872 5871 5871 5871
5763 5767 5773 5779 5785 5789 5794 5797 5801 5805 5809 5813 5816 5820 5823 5826 5830 5833 5835 5839 5841 5844 5846 5849 5850 5852 5854 5856 5858 5859 5861 5862 5863 5864 5865 5866 5867 5868 5868 5868 5869 5869 5869 5869 5869 5869 5868 5868 5868
5754 5760 5765 5771 5777 5783 5787 5790 5795 5799 5803 5807 5810 5814 5818 5822 5825 5828 5831 5834 5837 5840 5842 5845 5847 5849 5851 5853 5854 5856 5857 5859 5860 5861 5862 5863 5864 5865 5865 5865 5866 5866 5866 5866 5866 5865 5865 5865 5865
5745 5752 5758 5765 5771 5776 5780 5783 5788 5792 5797 5800 5804 5809 5813 5817 5820 5823 5826 5829 5832 5835 5838 5840 5843 5845 5847 5849 5851 5852 5854 5855 5857 5858 5859 5860 5861 5861 5862 5862 5862 5863 5863 5863 5863 5862 5862 5862 5861
5736 5744 5753 5759 5763 5767 5772 5776 5781 5786 5790 5794 5798 5803 5807 5811 5815 5818 5821 5824 5827 5830 5833 5836 5838 5841 5843 5845 5847 5848 5850 5852 5853 5854 5855 5856 5857 5858 5858 5859 5859 5859 5859 5859 5859 5859 5859 5858 5858
5729 5737 5745 5749 5754 5758 5763 5768 5774 5779 5783 5788 5792 5797 5801 5805 5809 5812 5816 5819 5822 5825 5828 5831 5833 5836 5838 5840 5842 5844 5846 5847 5849 5850 5851 5852 5853 5854 5854 5855 5855 5856 5856 5856 5856 5855 5855 5855 5854
5721 5729 5734 5740 5745 5750 5755 5760 5766 5771 5776 5781 5785 5790 5794 5798 5802 5806 5810 5814 5817 5820 5823 5826 5828 5831 5833 5835 5837 5839 5841 5843 5844 5846 5847 5848 5849 5850 5850 5851 5851 5851 5852 5852 5851 5851 5851 5850 5850
5712 5719 5725 5730 5736 5741 5746 5753 5758 5764 5769 5774 5779 5783 5788 5792 5796 5799 5803 5807 5810 5814 5817 5820 5823 5825 5828 5830 5832 5834 5836 5838 5839 5841 5842 5843 5844 5845 5846 5846 5847 5847 5847 5847 5847 5847 5846 5846 5845
5703 5709 5715 5720 5727 5733 5739 5745 5751 5757 5761 5766 5771 5776 5780 5785 5789 5793 5797 5801 5804 5808 5811 5814 5817 5820 5822 5824 5826 5829 5830 5832 5834 5835 5837 5838 5839 5840 5841 5841 5842 5842 5842 5842 5842 5842 5841 5840 5839
5693 5699 5705 5711 5718 5725 5731 5737 5743 5749 5753 5758 5763 5768 5773 5777 5782 5786 5790 5794 5798 5801 5805 5808 5811 5813 5816 5818 5821 5823 5825 5826 5828 5830 5831 5832 5834 5835 5835 5836 5836 5837 5837 5836 5836 5836 5836 5835 5834
5682 5689 5695 5704 5710 5716 5723 5729 5736 5740 5745 5750 5755 5760 5765 5770 5774 5778 5782 5787 5790 5794 5797 5801 5804 5807 5809 5812 5814 5817 5819 5820 5822 5824 5825 5826 5828 5829 5830 5830 5831 5831 5831 5830 5830 5830 5829 5829 5828
5671 5679 5687 5695 5701 5707 5713 5720 5726 5731 5736 5741 5746 5751 5756 5761 5766 5770 5775 5779 5783 5787 5790 5794 5797 5800 5802 5805 5808 5810 5812 5814 5816 5818 5819 5820 5821 5822 5823 5824 5824 5825 5824 5824 5824 5824 5823 5822 5821
5665 5673 5679 5686 5692 5698 5704 5711 5717 5722 5727 5732 5737 5742 5747 5753 5758 5762 5767 5771 5775 5779 5783 5786 5789 5792 5795 5798 5800 5803 5805 5807 5809 5811 5812 5814 5815 5816 5817 5817 5818 5818 5818 5818 5817 5817 5816 5815 5814
5658 5664 5671 5677 5682 5689 5695 5701 5707 5712 5718 5723 5728 5733 5739 5744 5749 5753 5758 5762 5766 5770 5774 5778 5781 5784 5787 5790 5793 5795 5798 5800 5802 5804 5805 5807 5808 5809 5810 5810 5811 5811 5811 5811 5810 5810 5809 5808 5806
5647 5654 5661 5667 5673 5679 5685 5691 5697 5703 5709 5714 5719 5724 5730 5734 5739 5744 5749 5753 5758 5762 5766 5769 5773 5776 5779 5782 5785 5787 5790 5792 5794 5796 5798 5799 5800 5801 5802 5803 5803 5803 5803 5803 5803 5802 5801 5800 5799
5638 5646 5653 5659 5664 5669 5675 5681 5687 5693 5699 5704 5709 5715 5720 5725 5730 5735 5740 5745 5749 5753 5757 5760 5764 5768 5771 5773 5776 5779 5782 5784 5786 5788 5790 5791 5792 5793 5794 5795 5795 5796 5796 5795 5795 5794 5793 5792 5791
5631 5638 5644 5650 5655 5660 5666 5671 5679 5684 5689 5695 5701 5706 5711 5717 5722 5726 5731 5736 5740 5744 5748 5751 5755 5759 5762 5765 5768 5771 5774 5776 5778 5780 5782 5783 5785 5786 5786 5787 5787 5788 5787 5787 5787 5786 5785 5784 5783
5625 5631 5636 5642 5647 5651 5656 5661 5669 5673 5679 5686 5693 5698 5703 5708 5713 5718 5722 5727 5731 5735 5739 5742 5746 5750 5753 5756 5759 5762 5765 5767 5769 5772 5773 5775 5776 5777 5778 5779 5779 5779 5779 5779 5778 5777 5777 5775 5774
5616 5623 5628 5633 5637 5641 5648 5653 5659 5665 5672 5678 5684 5689 5694 5699 5703 5708 5713 5717 5721 5726 5729 5733 5737 5740 5744 5747 5750 5753 5756 5758 5761 5763 5765 5766 5768 5769 5769 5770 5770 5771 5770 5770 5769 5769 5768 5767 5765
5608 5615 5620 5623 5626 5633 5641 5644 5650 5657 5663 5669 5674 5680 5685 5689 5694 5698 5703 5708 5712 5716 5720 5724 5728 5731 5734 5738 5741 5744 5747 5749 5752 5754 5756 5757 5759 5760 5761 5761 5761 5761 5761 5761 5761 5760 5759 5758 5756
5602 5608 5613 5617 5620 5626 5631 5635 5642 5648 5654 5660 5665 5670 5675 5680 5684 5689 5693 5698 5703 5707 5710 5714 5718 5722 5725 5728 5732 5735 5737 5740 5742 5744 5747 5748 5750 5751 5751 5752 5752 5752 5752 5752 5751 5751 5749 5748 5747
5595 5601 5607 5611 5614 5618 5622 5628 5634 5640 5646 5651 5656 5661 5665 5670 5675 5679 5684 5689 5693 5697 5701 5705 5709 5712 5716 5719 5722 5725 5728 5730 5733 5735 5737 5739 5740 5741 5742 5742 5743 5743 5743 5742 5742 5741 5740 5738 5737
5589 5595 5599 5602 5606 5610 5615 5621 5626 5632 5638 5642 5647 5652 5656 5660 5665 5670 5674 5679 5683 5687 5691 5695 5699 5702 5705 5709 5712 5715 5718 5720 5723 5725 5727 5729 5730 5731 5732 5732 5733 5733 5733 5733 5732 5731 5730 5729 5727
5583 5587 5591 5596 5600 5604 5608 5615 5619 5624 5629 5633 5638 5642 5646 5651 5656 5660 5665 5670 5674 5678 5681 5685 5689 5692 5695 5699 5702 5705 5708 5710 5712 5715 5717 5718 5720 5721 5722 5722 5723 5723 5723 5722 5722 5721 5720 5718 5717
5576 5581 5586 5590 5594 5598 5601 5609 5611 5616 5620 5624 5628 5633 5638 5642 5646 5651 5655 5660 5664 5668 5672 5675 5678 5682 5685 5688 5692 5695 5697 5700 5702 5704 5706 5708 5709 5710 5711 5711 5712 5712 5712 5712 5711 5710 5709 5708 5706